TimeEST,TemperatureF,Dew PointF,Humidity,Sea Level PressureIn,VisibilityMPH,Wind Direction,Wind SpeedMPH,Gust SpeedMPH,PrecipitationIn,Events,Conditions,WindDirDegrees,DateUTC
12:53 AM,73.9,62.1,66,30.14,10.0,ENE,19.6,29.9,N/A,,Overcast,60,2013-11-25 05:53:00
1:53 AM,72.0,63.0,73,30.14,9.0,NE,21.9,32.2,N/A,,Overcast,50,2013-11-25 06:53:00
2:53 AM,73.0,61.0,66,30.13,10.0,ENE,23.0,32.2,N/A,,Overcast,60,2013-11-25 07:53:00
3:53 AM,73.0,61.0,66,30.13,10.0,ENE,20.7,32.2,N/A,,Overcast,60,2013-11-25 08:53:00
4:53 AM,73.0,59.0,61,30.14,10.0,ENE,20.7,28.8,N/A,,Overcast,70,2013-11-25 09:53:00
5:53 AM,73.0,59.0,61,30.14,10.0,ENE,21.9,28.8,N/A,,Overcast,70,2013-11-25 10:53:00
6:53 AM,73.0,57.9,59,30.14,10.0,ENE,21.9,29.9,N/A,,Overcast,70,2013-11-25 11:53:00
7:53 AM,73.0,59.0,61,30.17,10.0,ENE,20.7,26.5,N/A,,Overcast,70,2013-11-25 12:53:00
8:53 AM,73.0,60.1,64,30.18,10.0,East,21.9,32.2,N/A,,Mostly Cloudy,80,2013-11-25 13:53:00
9:53 AM,73.9,62.1,66,30.20,10.0,ENE,18.4,31.1,N/A,,Scattered Clouds,70,2013-11-25 14:53:00
10:53 AM,73.9,62.1,66,30.21,10.0,ENE,20.7,27.6,N/A,,Mostly Cloudy,70,2013-11-25 15:53:00
11:53 AM,75.9,63.0,64,30.19,10.0,ENE,18.4,26.5,N/A,,Overcast,70,2013-11-25 16:53:00
12:53 PM,75.9,63.0,64,30.16,10.0,ENE,16.1,26.5,N/A,,Overcast,70,2013-11-25 17:53:00
1:16 PM,77.0,62.6,61,30.15,10.0,ENE,19.6,27.6,N/A,,Overcast,70,2013-11-25 18:16:00
1:23 PM,75.2,64.4,69,30.14,10.0,ENE,19.6,26.5,N/A,,Overcast,60,2013-11-25 18:23:00
1:53 PM,75.0,64.0,69,30.14,10.0,ENE,21.9,27.6,N/A,,Overcast,70,2013-11-25 18:53:00
2:53 PM,75.0,64.0,69,-9999,10.0,ENE,18.4,29.9,N/A,,Overcast,70,2013-11-25 19:53:00
3:53 PM,75.0,64.9,71,-9999,10.0,ENE,23.0,28.8,N/A,,Overcast,70,2013-11-25 20:53:00
4:53 PM,73.9,64.9,73,30.12,10.0,East,18.4,27.6,N/A,,Mostly Cloudy,80,2013-11-25 21:53:00
5:53 PM,73.0,64.9,76,30.11,10.0,ENE,21.9,27.6,0.00,,Mostly Cloudy,70,2013-11-25 22:53:00
6:13 PM,73.4,66.2,78,-9999,10.0,ENE,23.0,31.1,0.00,,Overcast,70,2013-11-25 23:13:00
6:38 PM,73.4,66.2,78,-9999,10.0,ENE,13.8,28.8,0.00,,Overcast,70,2013-11-25 23:38:00
6:53 PM,73.9,66.0,76,-9999,10.0,ENE,19.6,27.6,0.00,,Overcast,70,2013-11-25 23:53:00
7:25 PM,73.4,66.2,78,-9999,3.0,ENE,17.3,28.8,0.01,Rain,Light Rain,70,2013-11-26 00:25:00
7:53 PM,73.0,66.9,81,-9999,6.0,ENE,23.0,28.8,0.01,Rain,Light Rain,70,2013-11-26 00:53:00
8:07 PM,73.4,68.0,83,-9999,9.0,East,17.3,26.5,0.00,Rain,Light Rain,80,2013-11-26 01:07:00
8:16 PM,73.4,69.8,88,-9999,8.0,East,19.6,28.8,0.00,Rain,Light Rain,90,2013-11-26 01:16:00
8:24 PM,71.6,69.8,94,-9999,7.0,East,18.4,28.8,0.00,Rain,Light Rain,80,2013-11-26 01:24:00
8:53 PM,73.9,70.0,87,-9999,10.0,East,16.1,24.2,0.01,,Overcast,80,2013-11-26 01:53:00
9:48 PM,73.4,71.6,94,-9999,10.0,East,17.3,27.6,0.00,,Overcast,80,2013-11-26 02:48:00
9:53 PM,73.9,71.1,91,-9999,9.0,East,16.1,26.5,0.00,,Overcast,80,2013-11-26 02:53:00
10:03 PM,73.4,71.6,94,-9999,7.0,East,20.7,28.8,0.00,Rain,Light Rain,90,2013-11-26 03:03:00
10:27 PM,73.4,69.8,88,-9999,10.0,East,19.6,26.5,0.00,,Overcast,90,2013-11-26 03:27:00
10:53 PM,73.0,69.1,87,-9999,5.0,East,17.3,27.6,0.01,Rain,Light Rain,90,2013-11-26 03:53:00
11:13 PM,73.4,71.6,94,-9999,10.0,East,21.9,28.8,0.00,,Overcast,90,2013-11-26 04:13:00
11:20 PM,73.4,69.8,88,-9999,10.0,East,19.6,28.8,0.00,,Overcast,90,2013-11-26 04:20:00
11:31 PM,73.4,71.6,94,-9999,10.0,East,19.6,28.8,0.00,,Overcast,80,2013-11-26 04:31:00
11:53 PM,75.0,71.1,87,-9999,8.0,East,20.7,31.1,0.00,Rain,Light Rain,90,2013-11-26 04:53:00